Tacoma Narrows, WA
on Monday, December 10, 2012

Monday
Previous Day Next Day
Daily Summary
 ActualAverageRecord
Temperature
Mean Temperature °F °F  
Max Temperature 44°F 45°F 66°F (2014)
Min Temperature 42°F 38°F 30°F (2013)
Degree Days
Heating Degree Days 22    
Moisture
Dew Point 41°F   
Average Humidity 92    
Maximum Humidity 100    
Minimum Humidity 87    
Precipitation
Precipitation 0.05 in in in ()
Wind
Wind Speed 2 mph   
Max Wind Speed 10 mph   
Max Gust Speed mph   
Visibility 5 miles   
Events     
Averages and records for this station are not official NWS values.
Key: T is trace of precipitation, MM is missing value
Source: NWS Daily Summary
Seasonal Weather Averages
Time(PST)TemperatureDew PointHumidity Pressure Visibility Wind DirectionWind SpeedGust SpeedPrecipitationEvents Conditions
12:05 AM 44.6°F 42.8°F 93% 30.36 in 3.0 miles Calm Calm - N/A   Overcast
12:53 AM 44.1°F 42.1°F 93% 30.37 in 5.0 miles NNE 3.5 mph - N/A   Overcast
1:10 AM 44.6°F 42.8°F 93% 30.36 in 2.5 miles North 3.5 mph - N/A   Overcast
1:23 AM 44.6°F 42.8°F 93% 30.36 in 3.0 miles Calm Calm - N/A   Overcast
1:32 AM 44.6°F 42.8°F 93% 30.37 in 2.0 miles Calm Calm - 0.01 in   Overcast
1:53 AM 44.1°F 42.1°F 93% 30.38 in 2.0 miles Calm Calm - 0.01 in   Overcast
2:23 AM 44.6°F 42.8°F 93% 30.38 in 3.0 miles Calm Calm - N/A   Overcast
2:53 AM 44.1°F 42.1°F 93% 30.41 in 3.0 miles NNE 3.5 mph - 0.01 in   Overcast
3:53 AM 44.1°F 42.1°F 93% 30.41 in 5.0 miles North 3.5 mph - N/A   Overcast
4:13 AM 42.8°F 41.0°F 93% 30.41 in 2.0 miles North 6.9 mph - N/A   Overcast
4:53 AM 43.0°F 42.1°F 97% 30.41 in 3.0 miles Calm Calm - N/A   Overcast
5:53 AM 43.0°F 41.0°F 93% 30.41 in 4.0 miles Calm Calm - N/A   Overcast
6:10 AM 42.8°F 41.0°F 93% 30.40 in 1.8 miles NNW 3.5 mph - N/A   Overcast
6:23 AM 42.8°F 41.0°F 93% 30.41 in 3.0 miles North 4.6 mph - N/A   Overcast
6:53 AM 43.0°F 41.0°F 93% 30.42 in 4.0 miles NNE 3.5 mph - N/A   Overcast
7:53 AM 42.1°F 39.9°F 92% 30.43 in 5.0 miles North 3.5 mph - 0.01 in   Overcast
8:25 AM 42.8°F 41.0°F 93% 30.40 in 5.0 miles Calm Calm - N/A   Overcast
8:53 AM 43.0°F 41.0°F 93% 30.40 in 4.0 miles Calm Calm - N/A   Overcast
9:06 AM 42.8°F 41.0°F 93% 30.41 in 3.0 miles Calm Calm - N/A   Overcast
9:22 AM 42.8°F 41.0°F 93% 30.41 in 1.8 miles Calm Calm - N/A   Overcast
9:53 AM 43.0°F 42.1°F 97% 30.41 in 0.8 miles Calm Calm - N/A   Overcast
10:01 AM 42.8°F 41.0°F 93% 30.40 in 1.0 miles Calm Calm - N/A   Overcast
10:53 AM 43.0°F 41.0°F 93% 30.41 in 1.5 miles Calm Calm - 0.01 in   Overcast
11:12 AM 42.8°F 42.8°F 100% 30.41 in 0.8 miles Calm Calm - N/A   Overcast
11:53 AM 43.0°F 42.1°F 97% 30.40 in 0.8 miles Calm Calm - N/A   Overcast
11:56 AM 44.6°F 42.8°F 93% 30.40 in 2.0 miles Calm Calm - N/A   Overcast
12:02 PM 42.8°F 41.0°F 93% 30.39 in 3.0 miles Calm Calm - N/A   Overcast
12:19 PM 42.8°F 41.0°F 93% 30.39 in 2.0 miles Calm Calm - N/A   Overcast
12:53 PM 43.0°F 41.0°F 93% 30.39 in 2.0 miles Calm Calm - N/A   Overcast
1:53 PM 44.1°F 42.1°F 93% 30.36 in 2.0 miles Calm Calm - 0.01 in   Overcast
1:55 PM 44.6°F 42.8°F 93% 30.35 in 3.0 miles Calm Calm - N/A   Overcast
2:53 PM 44.1°F 42.1°F 93% 30.35 in 3.0 miles Calm Calm - N/A   Overcast
3:53 PM 44.1°F 42.1°F 93% 30.33 in 7.0 miles Calm Calm - N/A   Overcast
4:53 PM 44.1°F 41.0°F 89% 30.32 in 7.0 miles Calm Calm - N/A   Overcast
5:53 PM 44.1°F 41.0°F 89% 30.31 in 10.0 miles Calm Calm - N/A   Mostly Cloudy
6:53 PM 44.1°F 42.1°F 93% 30.28 in 10.0 miles Calm Calm - N/A   Overcast
7:53 PM 44.1°F 41.0°F 89% 30.25 in 10.0 miles Calm Calm - N/A   Overcast
8:32 PM 44.6°F 42.8°F 93% 30.22 in 10.0 miles SW 3.5 mph - N/A   Overcast
8:53 PM 43.0°F 41.0°F 93% 30.22 in 10.0 miles SSW 3.5 mph - N/A   Overcast
9:03 PM 44.6°F 41.0°F 87% 30.20 in 10.0 miles South 6.9 mph - N/A   Overcast
9:29 PM 44.6°F 41.0°F 87% 30.19 in 10.0 miles SSW 8.1 mph - N/A   Overcast
9:53 PM 43.0°F 39.9°F 89% 30.18 in 10.0 miles SSW 8.1 mph - N/A   Overcast
10:28 PM 42.8°F 41.0°F 93% 30.15 in 10.0 miles South 8.1 mph - N/A   Overcast
10:53 PM 43.0°F 41.0°F 93% 30.15 in 10.0 miles SSW 3.5 mph - N/A   Overcast
11:25 PM 42.8°F 39.2°F 87% 30.13 in 10.0 miles SW 6.9 mph - N/A   Scattered Clouds
11:42 PM 42.8°F 39.2°F 87% 30.12 in 10.0 miles SSW 6.9 mph - N/A   Mostly Cloudy
11:51 PM 42.8°F 39.2°F 87% 30.12 in 10.0 miles SSW 8.1 mph - N/A   Mostly Cloudy
11:53 PM 42.1°F 39.9°F 92% 30.13 in 10.0 miles SSW 10.4 mph - N/A   Mostly Cloudy
Moon Phase
Dec. 10 Dec. 13 Dec. 20 Dec. 28 Jan. 04
Sunrise:07:46 AM (PST) Moon Rise:04:29 AM (PST)12/10
Sunset:04:20 PM (PST) Moon Set:02:19 PM (PST)12/10

Copyright © 2014 The Weather Underground, Inc.